Location: Aragoneses
(41.0275°N, 4.3847°W)
Time: 03:35:43
(UTC+00:00)

Cosmos 2333 Rocket - Pass Details

Date: 11 December 2025
Orbit: 837 x 865 km, 70.8° (Epoch: 13 January)

Event Time Altitude Azimuth Distance (km) Brightness Sun altitude
Rises 18:47:52 0° 164° (SSE) 3,408 5.3 -21.6°
Reaches altitude 10° 18:50:49 10° 149° (SSE) 2,482 4.4 -22.1°
Enters shadow 18:51:20 12° 145° (SE) 2,344 4.3 -22.2°
